Showing default

DRAGRACER 2(AUGURY), 46955

Orbit data source: Space-Track

DRAGRACER 2(AUGURY), 46955 is a payload satellite owned by TriSept (US) in SSO that was launched on Fri, 20 Nov 2020 UTC via an ELECTRON launch vehicle from the Rocket Lab Launch Complex (RLLC). Payload-class satellites include a variety of spacecraft equipped with specific instruments for various scientific and technological missions. These include communications satellites like Starlink; space stations such as the ISS; scientific satellites like the Hubble; Earth observation satellites from companies like Planet Labs, Umbra, and HawkEye 360; GPS; miniature CubeSats for education and research; and military/defense satellites.

Loading next visibility...
Identifier
46955, 2020-085AC
Orbit
SSO
Last TLE update
1 day ago
Origin
Manufacturer
Millenium ES
Mission
Operational Commercial Technology
Bus & Motor
CUBESAT 6U, Unknown motor
Mass
12 kg wet, 12 kg dry
Launch date (UTC)
2020-11-20 (5 years ago)
Launch vehicle
ELECTRON
Launch site
Rocket Lab Launch Complex (RLLC)
Object type
Payload
Rocket body
Debris
Shape & HBR
Box, Unknown HBR
Radar Cross Section
0.080 m², Medium (>0.1 m² and < 1m²)

Expand to show TLE details & history

TLE from 1 day ago
0 DRAGRACER 2(AUGURY)
1 46955U 20085AC  25172.43884717  .00010990  00000-0  19605-3 0  9996
2 46955  97.5797 339.6356 0008287 148.1718 212.0035 15.50228043255651
Epoch: 2025-06-21T10:31Z
TLE epoch observation values (Epoch: 2025-06-21T10:31:56.395Z)
Latitude
-0.00005°
Longitude
-88.22719°
Altitude
423.963 km
Speed
7.654 km/s
True Right ascension
22h 38m 32s
True Declination
0° 00' 00"
Sunlit
Object was in daylight at epoch
Visualization orbit readout
Latitude
1.60638°
Longitude
93.24095°
Altitude
414.266 km
Speed
7.665 km/s
Apparent Right ascension
12h 11m 17s
Apparent Declination
-20° 15' 56"
Sunlit
Object is in daylight
Visualization observer readout
Local Sidereal Time
02:14:44
Azimuth
62.448° ENE
Elevation
-57.129°
Doppler factor
1
Orbital elements
Apogee altitude
418.621 km
Perigee altitude
407.365 km
Semi-major axis
6,791.13 km
Eccentricity
0.00083
Inclination
97.5797°
RAAN
339.6356°
Arg. of periapsis
148.1718°
True anomaly
Unknown
Mean anomaly
212.0035°
Eccentric anomaly
Unknown
Mean motion
3.8782 °/min
Orbital period
92.83 mins
BSTAR
0.00019605
Loading maneuver chart data...
Loading SW <> Apogee altitude chart data...

DRAGRACER 2(AUGURY) Visibility forecast

Observer location: undefined°, undefined°

Span
Click to sort rows by Start time (UTC) header in descending order
Start Az.
Max El. time (UTC)
Max El. Az.
Max El.
End time (UTC)
End Az.
5 mins2025-06-23 00:15:59.884Z0.714° NNE2025-06-23 00:18:59.884Z251.467° W36.98°2025-06-23 00:20:59.884Z209.65° SW
|